Location: Bonningues
(50.7927°N, 2.0150°E)
Time: 08:22:23
(UTC+00:00)

Cosmos 1864 Rocket - Pass Details

Date: 08 August 2020
Orbit: 952 x 997 km, 82.9° (Epoch: 26 September)

Event Time Altitude Azimuth Distance (km) Brightness Sun altitude
Exits shadow 22:53:13 42° 178° (S) 1,348 4.7 -21.9°
Maximum altitude 22:55:29 81° 97° (E) 987 4.4 -22.0°
Drops below altitude 10° 23:01:45 10° 11° (NNE) 2,739 7.7 -22.3°
Sets 23:04:17 0° 11° (N) 3,698 8.6 -22.4°
